Location: La Oliva
(42.2466°N, 2.9955°E)
Time: 07:36:38
(UTC+00:00)

FALCON 9 DEB - Pass Details

Date: 22 April 2021
Orbit: 364 x 384 km, 53.0° (Epoch: 07 May)

Event Time Altitude Azimuth Distance (km) Brightness Sun altitude
Rises 19:05:03 0° 210° (SSW) 2,188 6.8 -5.6°
Reaches altitude 10° 19:07:11 10° 199° (SSW) 1,345 5.6 -6.0°
Maximum altitude 19:09:53 30° 135° (SE) 675 3.6 -6.4°
Drops below altitude 10° 19:12:35 10° 71° (ENE) 1,354 5.2 -6.9°
Sets 19:14:45 0° 61° (ENE) 2,207 6.4 -7.3°
